Lapse_Rate
7.1 6.5 6.5 6.5 6.5 6.5 6.5 6.5 6.5 6.5 6.5 6.5 6.5 6.5 6.5 6.9 7.1 7.1 7.3 7.6 7.7 8.0 8.5 8.8 8.9 9.0 6.3 5.8 6.4 6.9 6.4 6.0 7.4 7.8 6.6 5.7 5.5 6.9 6.3 5.4 5.7 5.4 5.6 5.4
6.5 6.5 6.5 6.5 6.5 6.5 6.5 6.5 6.5 6.5 6.5 6.5 6.5 6.5 6.5 6.5 6.7 7.2 7.3 7.5 7.7 7.9 8.2 8.5 8.7 8.6 7.5 5.7 6.2 7.4 6.5 6.8 8.1 7.2 4.9 7.1 6.3 5.9 5.7 5.5 5.1 5.7 5.7 5.2
6.5 6.5 6.5 6.5 6.5 6.5 6.5 6.5 6.5 6.5 6.5 6.5 6.5 6.5 6.5 6.5 6.9 7.2 7.5 7.7 7.8 7.8 7.9 8.3 8.5 8.6 8.4 7.2 5.8 8.2 6.5 7.4 7.2 6.7 6.6 7.1 8.3 7.0 6.5 5.4 5.1 5.4 5.6 5.4
6.5 6.5 6.5 6.5 6.5 6.5 6.5 6.5 6.5 6.5 6.5 6.5 6.5 6.5 6.5 6.5 6.5 6.5 7.0 7.3 7.6 7.8 8.1 8.1 8.3 8.5 8.6 7.4 8.5 8.3 8.7 6.6 5.8 6.6 6.7 6.6 6.1 4.4 4.4 4.1 4.6 4.8 5.5 5.5
6.5 6.5 6.5 6.5 6.5 6.5 6.5 6.5 6.5 6.5 6.5 6.5 6.5 6.5 6.5 6.5 6.5 6.5 6.5 7.3 7.6 7.9 8.0 8.0 8.0 8.4 8.8 8.9 7.6 4.5 4.1 4.3 5.6 6.4 4.8 3.7 6.3 5.7 5.1 4.3 4.8 5.4 5.7 5.7
6.5 6.9 6.5 6.5 6.5 6.5 6.5 6.5 6.5 6.5 6.5 6.5 6.5 6.5 6.5 6.5 6.5 6.5 6.6 7.3 7.6 7.9 8.0 8.1 7.9 7.2 8.4 8.5 5.1 5.0 5.1 4.7 4.8 5.2 5.4 5.2 5.6 6.0 5.4 4.7 5.7 5.2 5.2 5.4
6.5 6.5 6.5 6.6 6.5 6.5 6.5 6.5 6.5 6.5 6.5 6.5 6.5 6.5 6.5 6.5 6.5 6.5 6.5 7.2 7.7 8.0 8.0 8.1 8.1 8.1 8.5 8.3 5.7 4.7 4.5 4.4 4.2 4.8 4.1 4.6 4.9 5.5 4.2 4.3 5.3 5.2 5.5 5.3
6.5 6.5 6.5 6.5 6.5 6.5 6.5 6.5 6.5 6.5 6.5 6.5 6.5 6.5 6.5 6.5 6.8 7.2 7.4 7.6 7.8 7.9 8.1 8.1 8.1 7.2 4.7 6.9 7.2 5.6 4.9 5.0 3.9 3.8 3.6 4.5 4.4 4.9 5.1 5.8 5.7 5.9 5.4 4.8
6.5 6.5 6.5 6.5 6.5 6.5 6.5 6.5 6.5 6.5 6.5 6.5 6.5 6.5 6.5 6.5 6.5 6.7 7.0 7.4 7.6 7.9 7.9 8.1 7.8 5.1 3.3 3.3 2.6 3.8 5.4 4.9 4.5 4.3 3.8 3.3 3.6 3.7 3.4 4.5 5.1 5.3 5.7 5.8
6.5 6.5 6.5 6.5 6.6 6.5 6.5 6.5 6.5 6.5 6.5 6.5 6.5 6.5 6.5 6.5 6.5 6.5 6.5 7.0 7.5 7.9 8.0 8.0 8.0 5.4 3.8 2.6 2.3 1.8 2.3 4.8 4.9 4.7 4.2 3.7 3.7 3.4 3.3 3.1 3.2 2.6 2.7 3.5
6.5 6.5 6.5 6.5 6.5 6.5 6.5 6.5 6.5 6.5 6.5 6.5 6.5 6.5 6.5 6.5 6.5 6.5 6.6 7.3 7.6 7.8 8.1 8.3 8.3 7.7 5.8 4.3 2.7 2.2 1.8 2.2 2.7 4.5 4.0 4.0 3.1 3.3 3.7 4.3 3.7 3.1 3.5 2.9
6.5 6.5 6.5 6.5 6.5 6.5 6.5 6.5 6.5 6.5 6.5 6.5 6.5 6.5 6.5 6.5 6.4 6.9 7.0 7.4 7.8 8.1 8.2 8.4 8.5 8.5 6.8 5.5 4.4 2.9 2.1 1.6 1.8 2.5 4.6 4.7 4.0 4.6 3.3 3.3 3.4 3.5 3.3 3.0
6.5 6.5 6.5 6.5 6.5 6.5 6.5 6.5 6.5 6.5 6.5 6.5 6.5 6.5 6.5 6.6 6.6 7.2 7.2 7.6 7.9 8.0 8.1 8.3 8.4 8.3 8.1 6.3 6.0 4.6 3.5 3.1 2.3 3.2 4.9 4.9 4.6 4.7 5.0 4.7 4.8 4.4 3.4 2.2
6.8 6.5 6.5 6.5 6.5 6.5 6.5 6.5 6.5 6.5 6.5 6.5 6.5 6.5 6.5 6.5 6.5 6.8 7.3 7.7 7.9 8.0 8.1 8.2 8.3 8.4 8.4 6.5 5.6 4.9 3.6 4.0 3.9 4.1 4.3 4.8 4.6 4.8 4.8 5.3 4.9 4.4 3.9 4.0
6.5 6.5 6.5 6.5 6.5 6.5 6.5 6.5 6.5 6.5 6.5 6.5 6.5 6.5 6.5 6.5 6.5 7.0 7.5 7.7 7.8 7.9 8.0 8.2 8.3 8.4 8.4 5.8 4.8 5.0 5.0 5.1 5.0 5.0 4.5 4.2 4.4 5.1 5.5 4.8 4.5 4.7 3.9 4.5
6.5 6.5 6.5 6.5 6.5 6.5 6.5 6.5 6.5 6.5 6.5 6.5 6.5 6.5 6.5 7.0 7.0 7.1 7.2 7.5 7.6 7.8 7.9 8.1 8.3 8.3 8.2 7.5 5.0 4.4 4.5 6.3 5.8 5.0 5.0 4.9 4.2 4.3 4.7 4.6 4.8 4.3 4.0 3.9
6.5 6.5 6.5 6.5 6.5 6.5 6.5 6.5 6.5 6.5 6.5 6.5 6.5 6.5 6.6 6.5 6.7 6.9 7.1 7.3 7.3 7.6 7.8 7.9 7.8 8.1 7.8 7.4 6.2 4.5 4.4 6.5 6.5 5.3 5.0 4.5 4.9 4.9 4.4 3.7 3.8 3.9 4.0 4.7
6.5 6.5 6.5 6.5 6.5 6.5 6.5 6.5 6.5 6.5 6.5 6.5 6.5 6.5 6.7 6.8 7.1 7.2 7.3 7.4 7.5 7.5 7.0 6.4 6.4 5.7 6.4 6.2 5.7 4.7 5.5 6.8 6.8 5.6 4.7 4.1 3.8 4.7 4.5 5.0 4.8 4.8 5.0 5.5
6.6 6.5 6.5 6.5 6.5 6.5 6.5 6.5 6.5 6.5 6.5 6.5 6.5 6.5 7.0 7.2 7.2 7.1 7.6 7.5 7.4 7.4 7.3 6.2 5.5 5.5 5.9 5.8 5.4 5.3 6.1 6.5 5.5 4.5 5.1 4.9 4.0 3.5 4.0 4.1 4.7 4.1 3.3 3.6
6.5 6.5 6.5 6.5 6.5 6.5 6.5 6.5 7.1 6.8 6.5 6.8 6.9 6.8 6.9 7.2 6.5 6.5 7.6 7.5 7.6 7.3 6.6 6.6 5.5 5.4 6.1 5.4 4.6 4.6 4.8 4.6 4.0 4.0 4.3 4.9 4.6 4.1 3.6 3.0 3.7 4.2 3.7 2.7
6.5 6.5 6.5 6.5 6.5 6.5 6.5 6.9 7.2 6.5 6.5 7.1 7.2 7.1 7.1 6.6 7.1 7.7 7.7 7.6 8.3 8.1 7.1 6.3 5.7 5.7 5.8 6.1 5.1 5.3 5.7 4.5 3.9 4.2 4.3 4.5 4.2 4.1 3.6 2.8 3.6 3.2 3.1 3.0
6.5 6.5 6.5 6.5 6.5 6.5 7.2 6.8 6.5 6.7 7.4 7.4 7.5 7.4 7.3 7.5 7.7 7.7 8.0 8.1 8.4 8.4 8.4 7.2 6.8 7.3 8.3 6.6 5.9 5.4 6.0 5.3 4.9 4.5 4.0 4.1 3.8 3.7 3.4 3.1 3.4 2.5 2.4 1.9
6.5 6.5 6.5 6.5 6.5 6.9 7.3 7.1 7.6 7.6 7.4 7.6 7.5 7.7 7.7 7.6 7.6 7.9 8.0 8.3 8.5 8.5 8.5 7.5 8.1 8.5 8.2 7.7 6.3 6.1 5.9 5.2 4.8 4.8 4.3 4.0 3.7 3.5 3.6 3.3 2.6 3.2 3.0 3.1
6.5 7.0 6.5 6.5 6.6 6.8 7.3 7.7 7.9 7.9 7.7 7.9 8.1 8.0 8.1 7.8 8.1 8.1 8.3 8.4 8.5 8.6 8.5 8.1 7.9 8.1 8.2 6.9 6.7 6.7 6.1 5.4 5.2 5.2 5.0 4.7 3.7 3.5 2.9 3.2 3.6 4.0 4.0 3.8
6.7 6.7 6.5 6.5 6.7 7.1 7.3 7.6 7.6 7.7 8.3 8.2 8.3 8.3 8.2 8.2 8.1 8.2 8.2 8.3 8.3 8.5 7.7 7.8 8.1 8.0 7.3 6.6 6.4 6.4 5.6 5.1 4.5 4.5 5.2 5.0 4.6 4.2 3.4 4.0 4.0 4.2 4.0 4.0
7.0 6.5 6.5 6.5 7.0 7.0 7.1 6.9 7.1 6.7 7.1 7.2 8.0 7.6 7.6 8.1 7.9 8.1 7.5 7.5 7.9 7.5 6.5 6.4 6.4 6.2 5.9 5.8 5.7 5.7 5.5 5.0 5.0 4.9 5.4 5.5 5.8 5.1 5.1 4.9 4.3 5.3 5.3 5.0
Wind_Speed
15 13 18 23 24 15 3 10 11 6 4 5 15 19 19 21 18 18 21 22 20 20 18 17 16 16 17 18 20 21 18 17 14 13 11 10 10 12 11 15 19 20 18 19
8 23 20 18 18 16 17 16 17 13 14 9 15 20 19 23 24 23 24 22 18 14 14 16 17 16 17 19 20 20 18 19 17 13 11 12 13 12 12 12 18 18 19 19
19 6 15 17 15 18 19 21 17 12 3 11 12 18 16 12 10 9 13 16 13 14 14 14 17 18 16 18 20 20 18 16 18 19 12 10 11 10 10 11 12 14 20 19
18 22 5 16 22 17 19 15 17 12 7 7 2 8 9 9 10 11 10 6 9 10 11 12 13 16 15 16 16 18 19 17 19 23 16 14 13 13 11 11 10 10 20 19
9 8 20 18 12 18 7 9 14 12 11 7 12 6 4 4 8 4 4 9 9 9 8 9 11 11 10 10 11 7 5 9 21 22 20 15 15 11 10 10 14 14 13 19
18 2 10 12 14 17 9 9 7 5 5 8 14 11 7 7 1 4 7 9 11 10 5 1 1 3 5 7 9 9 7 7 12 14 15 17 16 15 11 12 12 11 10 11
18 18 7 7 9 13 16 9 4 5 6 7 2 10 8 4 6 7 6 10 11 11 10 7 7 6 4 8 10 9 11 9 9 10 10 12 10 13 15 15 12 14 10 10
11 11 22 17 21 10 23 18 6 7 6 3 4 8 2 4 8 12 11 11 12 14 13 13 12 11 10 4 6 8 10 10 12 10 10 9 11 6 6 12 10 11 11 12
6 9 4 7 15 17 7 15 11 3 2 3 6 6 2 9 9 11 12 13 15 15 14 15 14 13 12 12 12 10 9 7 8 10 9 10 8 9 6 8 8 7 10 9
7 6 8 13 5 12 8 11 5 4 6 7 6 5 3 7 6 9 11 13 13 14 15 15 14 14 13 12 11 13 11 2 8 9 8 7 9 8 9 7 7 6 3 5
7 5 3 8 13 14 5 5 8 4 8 4 5 3 5 5 7 9 11 12 13 14 14 14 14 13 13 13 14 13 13 11 8 1 6 7 5 6 8 10 10 8 8 8
6 5 5 8 4 9 17 15 17 8 7 8 3 3 5 8 10 9 11 12 13 14 14 14 14 15 15 15 14 13 12 11 9 6 4 8 9 10 8 6 7 11 13 12
7 3 7 5 4 7 6 9 10 16 3 9 10 5 5 8 10 11 11 12 12 14 16 15 15 15 16 15 14 13 13 12 10 8 3 6 6 7 9 10 9 11 9 8
7 3 4 6 5 4 6 14 12 7 4 9 8 11 9 12 11 11 12 13 13 14 16 16 16 16 15 14 14 14 13 12 10 10 9 8 6 2 3 5 7 7 8 10
7 4 6 10 11 10 10 6 10 8 5 7 7 9 10 10 11 12 12 13 14 16 17 17 17 16 16 15 15 14 13 12 11 10 9 8 8 6 3 1 2 4 6 7
5 3 8 8 7 9 4 16 8 12 8 6 6 9 13 11 7 12 13 14 15 16 17 17 17 17 17 17 14 14 13 11 9 9 10 9 8 7 7 5 1 2 3 3
3 2 4 4 7 8 4 15 11 12 15 7 6 6 12 9 9 12 13 13 13 14 16 17 16 16 15 15 15 14 13 11 10 9 9 9 8 6 7 6 5 3 1 2
2 2 2 4 5 3 6 10 16 17 13 13 9 11 11 11 3 10 13 14 14 14 14 14 14 15 16 15 16 15 13 11 11 11 12 11 9 7 6 5 4 3 1 4
6 3 2 3 2 6 3 6 5 5 8 12 12 13 13 14 12 8 17 14 13 14 13 12 12 13 13 14 16 15 14 13 13 13 12 11 11 9 8 7 6 3 1 1
3 1 4 1 3 1 5 10 5 5 3 9 11 12 14 14 4 6 15 14 14 14 12 13 14 12 12 13 15 13 14 14 14 14 13 11 11 10 9 8 7 3 2 2
3 3 2 3 1 4 10 10 5 5 4 9 9 8 11 9 7 10 12 13 13 12 13 13 12 11 12 14 13 12 12 14 14 14 13 12 11 11 10 9 7 6 3 2
4 4 3 2 1 2 15 1 2 4 4 8 8 10 9 9 10 11 12 13 14 14 14 15 13 13 12 12 11 11 11 12 13 13 12 12 11 9 8 9 7 6 4 2
2 3 2 4 3 3 7 9 7 7 6 8 10 11 11 10 11 13 12 13 13 13 12 12 12 13 12 12 11 11 12 13 13 12 11 11 11 9 8 8 7 5 4 3
2 2 1 4 2 4 7 6 8 8 8 8 9 9 10 11 10 11 11 11 11 11 12 12 12 12 13 13 12 11 12 12 11 11 10 9 8 8 7 5 5 5 4 4
3 3 1 2 1 4 2 7 6 9 9 9 9 9 9 10 11 12 11 11 11 12 12 11 11 11 13 13 12 11 12 12 11 10 9 7 6 7 6 4 4 4 4 4
4 2 2 2 2 3 2 5 5 7 8 8 9 11 10 9 10 10 11 11 10 12 12 11 13 14 14 13 11 11 11 10 9 9 7 7 6 6 6 6 5 7 8 8
Wind_Direction
195 208 211 206 217 240 266 237 237 210 198 246 248 262 271 274 270 262 262 261 257 256 249 248 224 217 217 211 212 212 206 213 208 193 183 182 181 189 189 183 188 185 182 184
194 229 223 229 231 235 236 248 248 265 272 255 272 270 270 267 262 257 262 269 270 261 253 244 224 210 211 210 210 216 211 204 194 196 188 199 190 182 186 181 177 184 183 185
214 211 231 208 210 223 231 235 239 242 267 250 284 277 258 254 246 249 253 263 271 265 256 243 224 212 210 214 210 207 203 215 194 188 183 200 192 162 173 183 179 186 186 185
235 230 171 208 227 216 238 225 236 229 245 254 218 287 262 258 252 264 268 294 300 284 250 246 227 213 206 216 216 217 227 210 197 182 180 174 178 168 185 186 182 175 187 187
207 194 209 218 210 202 237 177 202 215 225 272 224 254 251 239 257 224 355 342 335 315 269 243 227 221 214 202 198 190 193 210 184 172 173 174 187 190 173 172 172 183 186 191
251 160 211 220 222 200 151 141 143 181 220 250 231 220 261 240 256 106 23 13 7 1 345 286 208 201 200 191 165 159 151 135 155 163 175 187 187 179 169 171 180 186 183 188
234 231 209 185 176 189 186 170 186 215 202 243 153 203 265 316 304 304 33 32 23 23 27 39 56 62 181 190 163 162 154 150 161 169 172 187 185 180 172 174 181 178 183 190
211 230 215 194 214 189 208 198 198 219 206 184 173 224 209 348 63 83 73 56 38 35 34 40 43 49 35 38 191 162 176 170 167 173 168 183 172 178 178 193 187 189 192 194
235 230 199 203 201 201 178 211 229 118 68 223 185 228 144 51 90 76 63 52 41 35 35 38 39 38 35 37 36 33 177 175 175 181 178 179 165 164 167 182 187 193 198 192
344 287 189 193 181 235 220 173 176 210 199 223 195 229 121 31 67 58 50 43 38 34 33 32 32 34 33 32 29 34 38 122 181 178 175 167 166 174 187 167 177 166 147 154
344 292 142 156 204 190 175 197 219 221 216 233 171 156 30 7 69 64 49 40 33 32 30 29 26 30 34 33 32 31 24 28 40 158 168 174 169 185 173 183 190 180 184 185
352 302 297 224 341 240 203 206 207 209 185 226 310 121 48 57 59 56 44 36 31 30 27 27 25 23 27 28 28 28 21 13 10 357 168 176 170 181 193 176 169 180 196 188
353 359 324 296 202 61 29 6 355 245 246 199 201 130 83 73 63 48 36 26 25 24 20 20 22 23 20 18 20 24 25 9 4 1 42 144 157 185 199 195 185 192 177 160
353 281 259 283 339 341 328 346 1 300 233 215 217 124 60 33 38 32 22 19 20 20 17 13 13 13 14 14 9 13 21 18 12 25 30 35 42 145 190 209 205 191 170 174
11 277 310 297 294 276 274 18 46 19 5 12 40 99 38 26 31 25 19 14 17 14 10 7 4 2 3 2 0 0 13 22 19 37 48 35 12 13 33 180 177 189 171 193
349 301 330 303 310 267 160 20 33 44 12 59 71 67 358 6 34 35 25 17 15 9 3 359 358 356 355 354 350 348 354 10 19 38 31 24 28 22 22 22 54 151 171 160
299 308 322 296 337 305 154 1 82 77 38 3 39 9 345 347 21 27 16 9 10 6 359 354 353 347 347 343 343 345 341 341 15 26 32 36 26 36 24 10 8 11 201 177
263 275 257 288 312 235 78 41 69 75 40 26 21 7 343 316 260 52 28 360 0 357 355 352 345 342 338 341 344 345 350 2 13 15 17 13 19 16 21 24 28 6 331 214
233 293 294 290 27 103 116 23 347 1 53 16 1 0 351 352 150 47 14 358 352 348 343 346 343 334 334 343 348 349 0 5 9 6 6 2 1 4 7 13 356 7 343 275
81 294 262 182 259 214 37 344 318 294 135 12 1 2 0 5 57 2 351 353 349 347 347 338 347 341 338 349 354 355 0 1 355 349 352 353 359 1 357 1 349 337 324 291
343 348 337 292 42 106 352 319 306 216 40 355 3 1 2 19 4 333 342 351 351 350 345 352 344 338 349 353 356 357 353 352 345 334 346 349 352 353 354 352 342 330 335 306
342 336 15 279 175 146 353 86 50 354 346 350 354 5 358 355 349 349 347 348 351 352 349 1 350 344 351 356 357 357 348 339 332 332 341 343 346 346 347 345 339 339 333 340
222 359 25 357 79 70 43 59 36 9 358 2 353 354 355 352 351 343 344 347 345 345 355 1 351 344 352 354 359 350 342 338 336 334 339 337 338 339 341 340 342 334 335 314
115 15 88 193 106 94 59 43 22 7 355 349 350 348 348 342 344 342 340 342 339 339 355 353 353 350 350 351 356 348 337 332 331 329 330 329 332 334 339 336 331 328 323 316
6 330 21 98 50 153 199 34 2 349 353 353 349 350 347 341 341 341 333 337 337 340 350 349 351 346 342 349 349 345 339 333 334 329 328 326 330 331 329 315 312 311 301 300
358 7 331 68 32 318 312 351 348 341 345 341 340 341 344 344 336 335 331 333 333 343 346 345 345 345 342 341 335 341 339 334 329 325 326 327 328 324 322 313 314 311 302 297